This is the latest recevied weather packets stored in our database for station/object T10BNorth. If no packets are shown the sender has not sent any weather packets the latest 10 day(s).
| Time | Temp. | Humidity | Pressure | Rain* | Wind** | Luminosity | Snow |
|---|---|---|---|---|---|---|---|
| 1778249283 | 7.78° C | 61% | 1007.1 hPa | 0 mm | - | 381 W/m² | - |
| 1778249209 | 7.78° C | 59% | 1007 hPa | 0 mm | - | 411 W/m² | - |
| 1778249149 | 7.78° C | 60% | 1007 hPa | 0 mm | - | 455 W/m² | - |
| 1778249089 | 7.78° C | 60% | 1007 hPa | 0 mm | - | 401 W/m² | - |
| 1778249030 | 7.78° C | 58% | 1007 hPa | 0 mm | - | 401 W/m² | - |
| 1778248975 | 7.78° C | 57% | 1007 hPa | 0 mm | - | 341 W/m² | - |
| 1778248904 | 7.78° C | 58% | 1007 hPa | 0 mm | - | 304 W/m² | - |
| 1778248843 | 7.78° C | 58% | 1007.1 hPa | 0 mm | - | 302 W/m² | - |
| 1778248784 | 7.78° C | 58% | 1007 hPa | 0 mm | - | 301 W/m² | - |
| 1778248724 | 7.78° C | 58% | 1007 hPa | 0 mm | - | 318 W/m² | - |
| 1778248667 | 7.78° C | 59% | 1007.1 hPa | 0 mm | - | 325 W/m² | - |
| 1778248597 | 7.78° C | 58% | 1007.1 hPa | 0 mm | - | 891 W/m² | - |
| 1778248535 | 7.78° C | 59% | 1007 hPa | 0 mm | - | 424 W/m² | - |
| 1778248477 | 7.78° C | 59% | 1007.1 hPa | 0 mm | - | 424 W/m² | - |
| 1778248417 | 7.78° C | 59% | 1007 hPa | 0 mm | - | 424 W/m² | - |
| 1778248361 | 7.78° C | 59% | 1007 hPa | 0 mm | - | 334 W/m² | - |
| 1778248283 | 7.78° C | 60% | 1007 hPa | 0 mm | - | 373 W/m² | - |
| 1778248222 | 7.78° C | 57% | 1007.1 hPa | 0 mm | - | 297 W/m² | - |
| 1778248163 | 7.78° C | 60% | 1007.1 hPa | 0 mm | - | 285 W/m² | - |
| 1778248101 | 7.78° C | 58% | 1007.2 hPa | 0 mm | - | 269 W/m² | - |
| 1778248047 | 7.78° C | 58% | 1007.2 hPa | 0 mm | - | 264 W/m² | - |
| 1778247978 | 7.78° C | 58% | 1007.2 hPa | 0 mm | - | 278 W/m² | - |
| 1778247916 | 7.78° C | 58% | 1007.1 hPa | 0 mm | - | 874 W/m² | - |
| 1778247857 | 7.78° C | 59% | 1007.2 hPa | 0 mm | - | 874 W/m² | - |
| 1778247797 | 7.78° C | 59% | 1007.2 hPa | 0 mm | - | 264 W/m² | - |
* Rain latest hour (hover to see other rain measurements)
** Current wind speed in m/s (hover to see current wind gust speed)